Flag for Sweden

Past Weather in Luleå, Sweden — Yesterday and Last 2 Weeks

Now
55 °F

Sunny.


Feels Like: 55 °F
Forecast: 62 / 53 °F
Wind: No wind

Location: Lulea / Kallax

Current Time: Jul 9, 2020 at 12:07:37 am

Latest Report: Jul 8, 2020 at 11:00 pm


Visibility: 28 mi

Pressure: 29.62 "Hg

Humidity: 93%

Dew Point: 53 °F

Location of LuleåLocation

Past Weather in Luleå — Graph

°F

Luleå Temperature Yesterday

Maximum temperature yesterday: 61 °F (at 3:00 pm)
Minimum temperature yesterday: 51 °F (at 3:00 am)
Average temperature yesterday: 57 °F

High & Low Weather Summary for the Past Weeks

 TemperatureHumidityPressure
High82 °F (Jun 24, 5:00 pm)97% (Jul 5, 12:00 am)30.25 "Hg (Jul 5, 12:00 am)
Low44 °F (Jul 5, 3:00 am)27% (Jun 24, 5:00 pm)29.03 "Hg (Jun 30, 11:00 pm)
Average60 °F71%29.65 "Hg
* Reported Jun 23 10:00 pm — Jul 8 10:00 pm, Luleå. Weather by CustomWeather, © 2020

Note: Actual official high and low records may vary slightly from our data, if they occured in-between our weather recording intervals... More about our weather records

Luleå Weather History for the Previous 24 Hours

Scroll right to see more
 ConditionsComfort  
Time TempWeatherWind HumidityBarometerVisibility
10:00 pm
Wed, Jul 8
57 °FSunny.1 mph91%29.62 "Hg28 mi
9:00 pm58 °FPartly sunny.2 mph86%29.61 "Hg28 mi
8:00 pm58 °FOvercast.2 mph85%29.61 "Hg28 mi
7:00 pm59 °FOvercast.3 mph83%29.61 "Hg28 mi
6:00 pm58 °FOvercast.2 mph86%29.60 "Hg28 mi
5:00 pm59 °FSunny.5 mph81%29.60 "Hg25 mi
4:00 pm60 °FSunny.5 mph78%29.59 "Hg25 mi
3:00 pm61 °FSunny.5 mph72%29.59 "Hg22 mi
2:00 pm59 °FSunny.6 mph77%29.59 "Hg25 mi
1:00 pm59 °FOvercast.6 mph80%29.59 "Hg25 mi
12:00 pm60 °FOvercast.5 mph77%29.58 "Hg22 mi
11:00 am61 °FScattered clouds.3 mph74%29.57 "Hg25 mi
10:00 am58 °FPartly sunny.2 mph79%29.57 "Hg22 mi
9:00 am57 °FRain showers. Overcast.2 mph88%29.56 "Hg17 mi
8:00 am57 °FLow clouds.3 mph88%29.55 "Hg22 mi
7:00 am55 °FOvercast.2 mph93%29.55 "Hg22 mi
6:00 am56 °FLow clouds.1 mph92%29.55 "Hg25 mi
5:00 am55 °FLow clouds.2 mph95%29.54 "Hg25 mi
4:00 am53 °FOvercast.1 mph95%29.54 "Hg25 mi
3:00 am51 °FOvercast.No wind97%29.53 "Hg22 mi
2:00 am52 °FScattered clouds.No wind97%29.53 "Hg13 mi
1:00 am53 °FLow clouds.No wind96%29.53 "Hg17 mi
12:00 am55 °FOvercast.No wind95%29.50 "Hg22 mi
Weather by CustomWeather, © 2020

See weather overview